Eilat, Israel

1:38 AM IDT on June 29, 2017 (GMT +0300)
Eilat

Weather History for LLET - August, 2013

Change the Weather History Date:

Saturday, August 17, 2013

  Actual Average Record
Temperature  
Mean Temperature 94 °F -  
Max Temperature 107 °F 99 °F 114 °F (2015)
Min Temperature 82 °F 78 °F 80 °F (1996)
Cooling Degree Days 30    
Growing Degree Days 44 (Base 50)    
Moisture  
Dew Point 51 °F    
Average Humidity 21    
Maximum Humidity 43    
Minimum Humidity 5    
Precipitation  
Precipitation 0.00 in -13.12 in - ()
Sea Level Pressure  
Sea Level Pressure 29.66 in    
Wind  
Wind Speed 11 mph ()    
Max Wind Speed 21 mph    
Max Gust Speed -    
Averages and records for this station are not official NWS values.
T = Trace of Precipitation, MM = Missing Value Source: Averaged Metar Reports

Daily Weather History Graph

Daily Weather History Graph

Search for Another Location

Airport or City:

Trip Planner

Search our weather history database for the weather conditions in past years. The results will help you decide how hot, cold, wet, or windy it might be!

Date:

Astronomy

Aug. 17, 2013 Rise Set
Actual Time 6:09 AM IDT 7:18 PM IDT
Civil Twilight 5:44 AM IDT 7:43 PM IDT
Nautical Twilight 5:14 AM IDT 8:13 PM IDT
Astronomical Twilight 4:44 AM IDT 8:43 PM IDT
Moon 4:07 PM IDT (8/17) 1:59 AM IDT (8/17)
Length of Visible Light 13h 59m
Length of Day
13h 09m
Waxing Gibbous, 81% of the Moon is Illuminated
Aug 17
Waxing Gibbous
Aug 21
Full
Aug 28
Last Quarter
Sep 5
New
Sep 12
First Quarter

Hourly Weather History & Observations

Time (IDT) Temp. Heat Index Dew Point Humidity Pressure Visibility Wind Dir Wind Speed Gust Speed Precip Events Conditions
3:00 AM 89 °F - 56 °F 23% 29.68 in - North 3.5 mph - -  
6:50 AM 84.2 °F 83.8 °F 59.0 °F 42% 29.71 in - NE 8.1 mph - N/A   Clear
7:50 AM 86.0 °F 86.1 °F 60.8 °F 43% 29.71 in - NE 9.2 mph - N/A   Clear
8:50 AM 89.6 °F 88.9 °F 59.0 °F 36% 29.71 in - ENE 11.5 mph - N/A   Clear
9:00 AM 91 °F - 59 °F 24% 29.70 in - NE 5.8 mph - -  
9:50 AM 93.2 °F 92.6 °F 59.0 °F 32% 29.71 in - ENE 15.0 mph - N/A   Clear
10:50 AM 96.8 °F 95.8 °F 57.2 °F 27% 29.68 in - NE 13.8 mph - N/A   Clear
11:50 AM 102.2 °F - 50.0 °F 17% 29.68 in - NNE 15.0 mph - N/A   Clear
12:50 PM 104.0 °F - 44.6 °F 13% 29.65 in - NNE 20.7 mph - N/A   Clear
1:50 PM 105.8 °F - 44.6 °F 13% 29.65 in - NNE 19.6 mph - N/A   Clear
2:50 PM 105.8 °F - 44.6 °F 13% 29.62 in - NE 19.6 mph - N/A   Clear
3:00 PM 107 °F - 39 °F 5% 29.61 in - NNE 8.1 mph - -  
3:50 PM 107.6 °F - 44.6 °F 12% 29.59 in - NE 18.4 mph - N/A   Clear
4:50 PM 107.6 °F - 42.8 °F 11% 29.59 in - NE 18.4 mph - N/A   Clear
5:50 PM 105.8 °F - 44.6 °F 13% 29.59 in - NE 17.3 mph - N/A   Clear
6:50 PM 104.0 °F - 46.4 °F 14% 29.62 in - NE 19.6 mph - N/A   Clear
7:50 PM 102.2 °F - 50.0 °F 17% 29.62 in - NNE 15.0 mph - N/A   Clear
8:50 PM 100.4 °F 99.7 °F 57.2 °F 24% 29.65 in - North 12.7 mph - N/A   Clear
9:00 PM 99 °F - 56 °F 15% 29.65 in - NNW 8.1 mph - -  
9:50 PM 98.6 °F 96.4 °F 53.6 °F 22% 29.68 in - NNE 18.4 mph - N/A   Clear
10:50 PM 96.8 °F - 50.0 °F 20% 29.71 in - NNE 13.8 mph - N/A   Clear
11:50 PM 95.0 °F - 48.2 °F 20% 29.71 in - NNE 12.7 mph - N/A   Clear